Location: Eferding
(48.3167°N, 14.0167°E)
Time: 04:22:22
(UTC+00:00)

Cosmos 1455 - Pass Details

Date: 12 November 2019
Orbit: 499 x 523 km, 82.5° (Epoch: 11 December)

Event Time Altitude Azimuth Distance (km) Brightness Sun altitude
Rises 16:03:41 0° 189° (S) 2,608 6.2 -6.1°
Reaches altitude 10° 16:05:48 10° 190° (S) 1,724 5.3 -6.4°
Maximum altitude 16:09:35 86° 281° (W) 515 2.2 -7.0°
Drops below altitude 10° 16:13:22 10° 9° (N) 1,726 4.6 -7.6°
Sets 16:15:30 0° 10° (N) 2,613 5.5 -7.9°
